7 * 24
多渠道服务支持
目前公开可查的星链卫星相关信息中,暂未检索到NORAD编号为100010、名称为STARLINK-38045的卫星的对应公开数据。现有公开的NORAD卫星编号目前最高仅到67000+号段,尚未进入100000号段;且已披露的星链序列中仅有编号接近的STARLINK-3804,其NORAD ID为52270,2022年4月21日发射,属于SpaceX第一代星链星座,为全球提供低轨宽带互联网接入服务。你可以核实卫星编号或名称的准确性,以便获取更准确的信息。
美国
(US)
| 数据来源 | 国际轨道数据 |
| 星历时间: | 2026-09-15T13:45:10+0800 8小时前 查看轨道信息 |
| 半长轴: | 6716.527km |
| 偏心率: | 0.0005377 |
| 轨道倾角: | 70.001° |
| 近地点辐角 | 315.259° |
| 升交点赤经 | 209.804° |
| 平近点角 | 44.817° |
| 近地点: | 334.778km |
| 远地点: | 342.002km |
| 周期: | 91.301分钟 |
| 每日圈数: | 15.77196 |